Temp
62 62 62 61 61 60 60 60 60 60 61 61 61 61 62 61 61 84 88 86 84 70 74 90 91 91 91 83 83 83 76 71 69 69 65 65 66 69 72 70 70 71 73 77 76
62 62 62 61 61 60 60 60 59 60 60 61 61 61 61 60 85 86 82 74 72 69 92 90 86 89 85 80 82 78 79 72 77 75 68 69 72 69 69 69 68 68 71 75 75
61 61 62 61 61 61 60 59 59 60 60 60 60 61 60 66 84 86 73 73 71 71 95 94 92 87 79 82 76 75 75 72 71 73 75 71 71 74 72 68 72 69 69 72 73
60 60 60 61 61 61 59 59 59 60 60 60 60 61 61 82 73 91 71 70 69 87 94 90 87 81 77 74 75 69 71 73 71 73 73 71 74 69 74 75 78 77 74 73 73
58 59 59 60 60 60 59 59 59 59 60 60 60 61 77 84 84 94 75 72 87 93 91 88 84 81 75 75 76 71 70 72 73 72 74 73 71 71 73 73 77 75 73 73 74
58 57 58 58 59 59 59 59 59 59 59 59 60 59 85 78 92 94 89 89 93 93 91 90 86 85 76 72 74 72 71 71 72 71 70 68 68 71 70 74 72 71 72 75 74
58 57 57 57 58 58 59 59 58 58 59 60 61 78 84 80 93 95 91 89 92 93 86 89 89 84 78 70 75 73 67 69 70 71 69 72 65 68 73 73 70 70 73 75 75
58 57 57 56 56 57 57 58 58 58 59 60 61 83 80 91 96 92 95 91 93 94 88 89 89 80 77 76 73 71 71 65 69 70 70 69 68 69 71 71 70 71 72 73 74
57 57 56 56 55 55 56 57 58 59 60 62 81 84 77 86 87 90 92 86 88 88 86 86 85 76 75 71 68 68 66 65 65 72 70 69 69 72 73 71 71 71 72 72 74
57 57 56 56 55 55 55 58 63 68 77 83 82 78 82 79 84 85 90 88 84 83 81 79 78 73 74 73 63 64 66 64 66 70 68 69 70 72 72 71 72 72 74 73 73
56 56 56 56 55 55 64 80 79 77 77 72 72 71 76 83 83 84 85 85 84 80 73 74 70 67 71 74 73 73 69 67 70 71 69 69 71 75 73 71 72 74 74 74 74
55 55 56 55 55 55 73 68 62 62 64 74 73 74 77 80 76 80 84 78 77 71 72 71 67 74 74 72 71 71 68 67 67 68 67 70 69 76 76 72 74 74 75 75 75
55 55 55 55 55 65 69 64 70 68 62 70 76 76 77 79 74 77 80 76 73 69 70 68 70 71 70 68 67 68 68 66 66 65 67 65 67 71 77 76 75 76 77 77 75
54 54 54 53 62 68 68 70 70 68 62 65 70 75 77 79 71 78 79 77 70 68 69 68 68 66 66 65 68 64 70 69 65 65 62 66 61 70 73 70 71 73 74 76 76
53 54 53 53 63 69 67 70 70 66 37 64 68 82 78 74 73 73 79 76 69 66 68 63 65 64 64 66 69 64 68 68 67 65 62 62 60 69 69 69 72 74 74 75 76
53 53 53 63 65 67 70 68 67 54 36 60 68 67 69 71 71 75 74 77 73 67 67 64 69 68 68 67 68 68 66 65 65 62 53 61 60 68 69 67 71 75 75 76 75
53 53 55 63 66 67 68 68 52 37 60 59 61 66 67 65 67 70 68 66 64 57 57 61 63 67 68 65 67 67 63 53 50 49 50 58 57 66 68 70 70 71 73 74 75
52 51 58 63 68 65 66 57 38 54 56 63 63 64 61 65 65 65 66 63 65 66 62 57 53 64 64 64 64 64 63 52 43 48 53 57 54 61 70 72 72 73 74 72 72
52 59 58 63 65 63 60 34 46 57 61 60 61 59 60 62 63 64 64 65 68 68 59 56 57 62 62 65 66 61 56 63 53 50 50 58 60 65 70 71 73 73 74 73 71
53 52 58 63 64 62 47 42 53 61 62 62 58 61 58 61 60 62 61 66 65 67 68 62 53 59 61 64 63 62 63 53 53 38 42 54 55 62 64 66 70 70 71 71 72
53 50 58 63 57 56 38 44 53 63 64 61 60 58 60 59 62 61 61 62 65 63 67 65 60 55 60 59 60 57 56 54 56 52 46 47 55 64 66 68 67 70 69 68 68
48 45 57 58 50 51 44 49 51 62 62 62 62 61 61 61 60 61 60 62 65 68 62 64 61 53 56 58 60 60 59 60 48 46 49 48 52 64 67 67 67 68 66 65 63
46 49 57 52 40 46 52 50 53 58 60 60 60 63 62 61 57 61 61 61 64 65 63 63 57 46 51 55 57 55 57 47 48 54 50 46 54 65 65 66 67 64 63 61 60
46 35 50 48 49 50 50 50 48 56 52 58 60 63 60 59 61 59 59 59 61 65 51 60 59 55 50 53 55 43 50 42 46 47 51 52 58 64 65 64 64 64 62 60 58
49 40 48 36 41 47 53 53 50 49 53 53 57 59 61 56 58 57 61 58 60 55 62 63 53 52 54 57 57 58 55 51 44 55 50 57 58 64 65 62 62 63 61 59 57
41 40 43 41 51 47 48 50 51 50 55 45 48 53 62 59 61 58 61 61 61 61 62 61 53 56 50 54 56 54 58 57 56 58 57 58 57 65 64 64 60 59 59 56 55
52 52 41 42 45 47 48 48 48 58 58 60 53 52 55 61 67 65 67 66 66 62 59 59 53 51 48 52 52 46 55 59 59 59 58 53 59 62 61 57 55 57 57 55 54
MSLP
1023.14 1022.84 1022.52 1022.09 1021.68 1021.23 1020.61 1019.91 1019.34 1018.92 1018.28 1017.82 1017.37 1016.72 1016.29 1016.03 1015.59 1015.12 1013.61 1013.96 1014.24 1014.83 1014.56 1014.34 1014.25 1013.85 1013.65 1013.87 1014.23 1014.00 1012.77 1012.92 1014.16 1015.40 1017.80 1019.97 1019.99 1020.89 1021.13 1021.29 1021.69 1022.05 1021.64 1021.96 1023.60
1023.05 1022.79 1022.47 1022.09 1021.62 1021.16 1020.64 1019.87 1019.22 1018.76 1018.20 1017.60 1017.21 1016.77 1016.18 1016.07 1015.16 1014.23 1013.89 1014.00 1014.37 1014.68 1013.87 1013.23 1013.20 1013.39 1013.23 1013.83 1014.35 1013.80 1012.59 1013.48 1014.59 1015.67 1017.54 1018.99 1019.14 1020.28 1020.60 1020.90 1021.42 1022.09 1022.80 1023.11 1023.79
1023.14 1022.70 1022.35 1021.93 1021.55 1020.99 1020.48 1019.93 1019.05 1018.52 1018.03 1017.43 1016.92 1016.58 1016.20 1015.86 1014.88 1013.75 1014.02 1014.16 1014.29 1014.36 1013.23 1012.85 1012.93 1013.03 1013.34 1013.94 1014.71 1014.73 1013.91 1015.55 1016.30 1016.93 1017.64 1018.56 1019.10 1019.78 1019.71 1019.86 1020.35 1021.19 1022.48 1023.18 1023.58
1023.24 1022.72 1022.19 1021.84 1021.32 1020.70 1020.23 1019.71 1018.91 1018.23 1017.75 1017.24 1016.68 1016.25 1015.90 1015.29 1013.69 1013.48 1013.89 1013.53 1013.79 1013.74 1013.11 1012.90 1012.92 1012.92 1013.34 1013.88 1015.12 1015.40 1016.39 1016.46 1017.30 1017.93 1018.23 1018.64 1019.15 1019.71 1019.28 1019.22 1020.08 1021.02 1022.35 1023.02 1023.36
1023.43 1023.00 1022.33 1021.69 1021.09 1020.51 1019.97 1019.35 1018.63 1017.87 1017.42 1017.00 1016.46 1016.02 1015.65 1014.03 1013.10 1013.05 1013.48 1013.68 1013.47 1013.01 1012.32 1012.39 1012.47 1012.80 1013.29 1014.46 1015.09 1015.91 1017.04 1017.53 1018.10 1018.51 1018.65 1019.10 1019.17 1019.06 1019.46 1020.27 1020.82 1021.63 1022.44 1022.75 1023.09
1023.52 1023.07 1022.37 1021.55 1021.01 1020.22 1019.63 1019.00 1018.30 1017.46 1017.04 1016.72 1016.11 1015.94 1014.74 1013.28 1013.26 1012.97 1013.01 1013.26 1012.59 1012.37 1012.23 1012.31 1012.30 1013.03 1014.17 1015.22 1015.26 1016.50 1017.38 1018.14 1018.65 1018.97 1019.41 1019.27 1019.49 1019.41 1020.10 1020.63 1021.31 1021.88 1022.10 1022.40 1022.84
1023.72 1023.20 1022.51 1021.67 1020.75 1020.00 1019.17 1018.48 1017.81 1017.05 1016.55 1016.48 1015.96 1015.26 1013.83 1013.61 1013.39 1012.78 1012.74 1012.87 1012.71 1012.24 1012.31 1012.71 1013.08 1013.01 1014.70 1015.77 1016.60 1016.93 1017.16 1018.18 1018.53 1018.82 1019.09 1019.15 1019.42 1018.88 1019.90 1020.90 1021.30 1021.67 1021.84 1022.08 1022.66
1023.96 1023.35 1022.66 1021.89 1020.74 1019.77 1018.87 1018.12 1017.24 1016.51 1016.15 1016.15 1015.78 1014.76 1013.67 1013.63 1013.31 1013.23 1012.58 1012.89 1013.02 1012.91 1013.25 1013.69 1013.76 1014.27 1014.77 1016.22 1016.42 1016.25 1016.50 1016.54 1018.00 1018.50 1018.99 1019.18 1016.90 1018.81 1019.89 1020.25 1020.73 1021.23 1021.55 1021.91 1022.40
1024.25 1023.51 1022.76 1021.89 1020.76 1019.59 1018.46 1017.51 1016.66 1016.17 1015.91 1015.72 1015.12 1014.26 1013.55 1013.54 1013.38 1013.62 1013.17 1013.03 1013.54 1013.84 1014.00 1014.23 1014.00 1014.82 1015.44 1014.90 1015.31 1015.66 1014.72 1015.42 1016.97 1017.81 1017.87 1018.20 1016.54 1017.87 1019.16 1019.55 1019.79 1020.49 1020.91 1021.35 1021.84
1024.42 1023.70 1022.82 1021.80 1020.88 1019.69 1018.24 1016.89 1016.09 1015.73 1015.38 1015.10 1014.97 1014.57 1013.98 1013.69 1013.88 1013.96 1013.96 1013.69 1013.59 1013.97 1014.04 1014.04 1014.12 1014.26 1014.30 1013.77 1012.96 1013.57 1014.13 1015.13 1015.26 1016.61 1017.49 1016.97 1016.52 1017.31 1018.36 1018.74 1018.75 1019.44 1019.90 1020.55 1021.08
1024.56 1023.76 1022.80 1021.85 1021.01 1019.84 1018.29 1016.17 1016.27 1016.03 1015.71 1015.53 1015.35 1014.86 1014.55 1014.30 1014.44 1014.06 1014.22 1013.81 1013.69 1013.67 1013.53 1014.14 1013.83 1013.09 1013.24 1013.24 1013.16 1013.11 1013.68 1014.08 1014.92 1016.01 1016.33 1016.09 1015.74 1015.76 1017.16 1017.77 1017.86 1018.30 1018.84 1019.55 1020.30
1024.71 1023.88 1022.99 1022.03 1021.23 1020.13 1018.68 1018.56 1020.20 1020.87 1018.04 1016.11 1015.58 1015.24 1014.91 1014.73 1014.13 1014.03 1014.37 1014.06 1013.85 1013.54 1014.05 1014.14 1013.38 1013.35 1013.81 1014.02 1013.60 1013.44 1013.43 1013.84 1015.19 1016.10 1016.14 1015.25 1014.93 1014.83 1015.54 1016.49 1016.87 1017.31 1017.94 1018.64 1019.66
1024.79 1024.04 1023.22 1022.17 1021.22 1020.32 1019.99 1020.64 1020.93 1020.82 1018.85 1016.14 1015.25 1014.67 1014.60 1014.66 1014.22 1014.11 1014.29 1014.18 1014.05 1014.07 1014.13 1014.02 1013.99 1014.91 1014.79 1014.49 1014.13 1013.80 1013.49 1013.91 1014.26 1015.75 1015.93 1015.41 1013.66 1013.34 1013.84 1015.33 1016.13 1016.58 1016.97 1017.78 1018.69
1024.94 1024.22 1023.42 1022.21 1021.43 1020.91 1020.34 1020.81 1020.71 1020.69 1018.33 1015.99 1015.09 1014.53 1014.47 1014.33 1014.45 1014.64 1014.61 1014.39 1014.63 1014.33 1014.57 1014.72 1015.51 1015.40 1015.37 1014.92 1014.78 1014.07 1014.36 1014.49 1014.90 1015.06 1014.38 1015.09 1012.66 1012.32 1013.15 1014.35 1015.23 1015.70 1016.29 1016.86 1017.73
1025.15 1024.47 1023.74 1023.14 1021.88 1020.66 1021.20 1020.82 1020.60 1020.28 1018.15 1016.19 1014.95 1014.64 1014.33 1014.09 1014.30 1014.54 1014.77 1014.48 1014.41 1014.83 1015.21 1015.43 1015.52 1015.53 1015.51 1015.20 1015.43 1015.21 1015.33 1015.16 1015.18 1015.05 1014.93 1014.56 1014.06 1011.99 1013.24 1013.16 1013.84 1014.71 1015.43 1016.09 1016.89
1025.19 1024.63 1024.00 1022.45 1021.73 1021.23 1021.02 1020.81 1020.33 1019.39 1017.30 1015.61 1014.87 1014.46 1014.21 1014.26 1014.25 1014.35 1014.52 1014.69 1015.17 1015.16 1015.53 1015.87 1016.19 1016.06 1015.80 1016.19 1016.11 1016.17 1015.89 1016.00 1015.89 1015.65 1014.86 1014.16 1014.07 1011.69 1012.56 1013.65 1013.86 1014.20 1014.67 1015.21 1016.19
1025.20 1024.50 1023.99 1023.08 1021.31 1021.33 1020.73 1020.19 1019.48 1018.42 1016.89 1015.58 1014.76 1014.54 1014.07 1014.10 1014.25 1014.09 1014.19 1014.42 1014.52 1015.05 1015.37 1016.08 1016.16 1016.48 1016.63 1016.31 1016.65 1016.18 1015.88 1015.67 1015.72 1015.63 1014.84 1015.23 1014.50 1012.65 1013.59 1014.09 1014.44 1014.62 1014.73 1015.05 1015.77
1024.92 1024.20 1023.04 1022.36 1021.66 1021.55 1020.53 1020.01 1018.86 1016.96 1016.12 1015.73 1015.09 1014.69 1014.15 1014.28 1014.28 1014.26 1014.14 1014.17 1014.80 1014.59 1014.75 1015.20 1016.08 1016.43 1016.96 1016.41 1015.95 1016.12 1016.01 1015.88 1015.63 1015.51 1015.26 1015.84 1014.08 1013.71 1014.17 1014.46 1014.93 1015.05 1015.20 1015.61 1016.13
1024.61 1023.38 1022.67 1021.75 1021.80 1021.61 1020.65 1019.91 1017.69 1016.36 1015.81 1015.38 1015.25 1014.51 1014.29 1014.45 1014.35 1014.27 1014.09 1013.78 1014.08 1014.56 1014.60 1015.02 1015.71 1017.04 1017.22 1017.13 1016.95 1016.62 1016.68 1016.85 1016.71 1017.25 1016.45 1014.90 1014.32 1014.32 1014.36 1014.44 1014.78 1015.10 1015.51 1015.98 1016.62
1024.69 1023.75 1022.10 1021.72 1021.60 1021.22 1020.92 1019.52 1018.06 1016.81 1016.12 1015.58 1014.65 1014.49 1013.87 1014.09 1014.30 1014.16 1014.09 1014.12 1014.25 1014.77 1014.90 1015.22 1016.00 1017.18 1017.49 1017.63 1017.68 1017.18 1017.52 1017.52 1017.52 1017.32 1016.26 1014.94 1014.31 1013.44 1014.29 1014.61 1015.08 1015.55 1016.05 1016.62 1017.03
1024.60 1023.27 1022.17 1021.96 1022.19 1021.18 1020.37 1019.44 1018.29 1017.21 1016.57 1015.89 1014.95 1014.74 1014.36 1014.17 1014.10 1013.92 1013.90 1014.71 1014.85 1015.21 1015.28 1015.40 1015.82 1017.40 1017.78 1017.39 1017.06 1017.90 1017.74 1018.19 1018.02 1017.84 1016.80 1015.60 1014.49 1014.73 1014.62 1015.11 1015.58 1016.12 1016.91 1017.57 1017.98
1024.69 1023.04 1022.40 1022.40 1021.83 1020.60 1019.98 1019.38 1018.58 1017.19 1017.05 1016.44 1015.85 1015.19 1014.66 1014.45 1014.24 1014.23 1014.21 1014.70 1015.28 1015.29 1015.31 1015.84 1015.96 1016.60 1017.00 1018.06 1018.30 1018.05 1017.94 1018.21 1018.31 1018.25 1017.84 1017.03 1015.64 1015.55 1015.50 1016.04 1016.53 1016.83 1017.61 1018.49 1019.19
1024.49 1023.19 1022.49 1022.60 1021.14 1019.91 1019.82 1019.30 1018.82 1017.84 1017.26 1016.79 1015.92 1015.53 1015.25 1014.62 1014.55 1014.46 1014.75 1015.70 1015.74 1015.72 1015.67 1016.03 1016.09 1016.70 1017.25 1018.24 1018.50 1018.38 1018.66 1019.27 1019.19 1018.51 1017.51 1016.87 1015.47 1015.98 1016.29 1016.52 1017.04 1017.71 1018.53 1019.43 1020.18
1024.97 1023.74 1022.50 1022.39 1021.37 1020.00 1019.34 1018.85 1018.85 1018.57 1018.02 1017.71 1016.90 1016.04 1015.52 1015.04 1014.99 1014.67 1015.09 1015.99 1016.25 1016.33 1016.81 1016.42 1016.09 1015.99 1016.37 1016.69 1017.43 1018.39 1018.69 1019.38 1019.05 1018.41 1017.03 1016.32 1015.42 1015.39 1015.83 1016.72 1017.47 1018.30 1019.31 1020.23 1020.98
1024.89 1023.97 1022.86 1022.25 1021.44 1020.58 1019.15 1018.52 1018.33 1018.32 1018.58 1018.55 1017.42 1016.49 1015.42 1015.01 1014.86 1014.77 1015.15 1016.00 1016.44 1016.84 1016.83 1016.33 1016.26 1016.56 1016.80 1017.05 1017.27 1017.26 1017.78 1018.48 1018.64 1017.51 1016.89 1015.82 1015.48 1015.29 1016.17 1017.23 1018.20 1019.12 1019.90 1020.78 1021.52
1025.09 1024.70 1023.85 1022.74 1020.90 1020.39 1019.65 1018.30 1017.91 1018.02 1017.90 1018.50 1018.34 1017.63 1016.06 1015.12 1014.55 1014.32 1014.85 1015.22 1015.15 1016.48 1016.48 1016.64 1016.62 1016.65 1016.98 1017.29 1017.29 1017.09 1016.96 1017.13 1017.12 1016.74 1016.45 1016.14 1015.82 1016.36 1017.25 1018.08 1019.07 1019.86 1020.45 1021.43 1022.27
1025.35 1024.99 1024.89 1023.12 1021.40 1020.01 1019.11 1018.86 1018.20 1017.61 1017.51 1017.61 1018.54 1018.40 1017.45 1016.29 1015.36 1015.15 1014.86 1015.09 1015.09 1015.35 1015.96 1016.41 1016.80 1017.01 1016.83 1017.34 1017.27 1016.75 1015.75 1015.64 1015.85 1016.20 1016.13 1015.90 1016.35 1017.35 1017.82 1019.32 1020.25 1020.58 1021.41 1022.23 1023.03
Wind_Speed
13 14 15 16 15 16 17 19 19 18 18 17 16 16 13 12 2 4 3 6 5 8 7 11 12 9 7 4 2 2 5 6 11 16 12 12 10 6 4 9 5 4 2 11 16
11 12 15 16 16 16 17 19 20 19 18 18 16 14 13 11 3 4 5 5 7 10 13 13 13 12 5 3 2 6 3 7 5 7 16 17 12 12 10 11 7 7 6 15 15
13 13 12 14 17 17 18 19 20 20 19 18 16 14 11 8 5 4 4 6 6 11 8 8 14 8 4 2 3 4 4 7 5 4 17 15 11 9 11 13 10 14 17 16 13
14 14 15 14 15 17 18 18 20 22 20 18 16 14 12 6 4 5 5 4 11 16 14 14 12 7 3 3 3 7 7 5 7 11 12 14 12 8 13 7 7 12 17 16 14
15 16 16 15 16 17 18 18 20 21 20 17 15 12 6 6 2 8 6 7 14 15 15 13 11 6 6 8 14 14 9 10 11 9 9 8 10 6 10 4 12 16 15 15 13
16 18 19 19 18 18 19 20 20 20 19 15 13 13 5 7 6 8 2 9 7 11 11 10 6 9 11 7 4 11 14 14 9 10 7 6 5 6 7 12 13 14 15 14 12
18 18 21 22 20 21 21 21 21 19 17 12 10 6 1 5 5 7 7 2 4 7 8 8 13 5 11 15 14 19 18 12 8 9 6 5 9 9 14 13 14 14 13 12 11
18 20 20 23 22 22 23 23 21 16 13 8 6 5 3 2 4 9 11 15 11 13 16 11 15 13 6 19 13 11 11 10 10 9 7 7 9 8 16 17 15 14 12 12 13
18 19 20 23 24 25 25 25 19 9 9 7 3 5 6 1 1 6 1 12 13 12 13 7 8 11 16 16 12 9 10 6 12 9 4 10 1 10 16 16 15 15 14 14 13
19 19 21 22 24 26 28 21 8 6 3 3 1 3 2 4 2 1 4 2 7 11 7 3 4 9 12 13 8 10 11 7 10 13 10 11 13 8 15 17 17 16 15 15 15
19 20 22 23 23 25 17 5 4 4 5 3 3 1 2 1 2 3 3 5 4 2 2 1 6 12 20 8 5 10 10 11 11 6 11 13 13 12 16 18 18 18 17 16 16
19 20 22 22 23 20 7 6 4 3 7 2 4 4 3 4 5 4 1 7 7 5 4 5 8 11 8 10 10 10 10 8 5 7 8 8 15 15 16 20 19 18 17 18 16
19 20 22 23 22 4 8 7 5 6 5 2 3 3 2 3 1 5 3 4 4 6 6 7 6 9 11 9 9 7 10 10 2 8 8 8 17 17 16 18 17 19 18 17 18
18 20 21 28 4 5 3 7 5 6 4 5 6 4 5 3 4 2 3 1 2 4 4 1 6 13 9 6 7 7 5 8 10 12 3 5 5 7 8 12 18 17 18 18 18
17 18 20 17 7 3 7 9 2 5 2 2 4 3 3 6 6 3 2 2 7 5 5 4 9 13 12 7 6 6 4 6 7 5 5 10 7 6 5 5 5 12 18 20 20
17 17 19 2 4 4 10 8 4 2 6 4 2 6 9 5 4 5 3 5 3 4 4 3 2 2 2 3 2 11 9 6 3 3 7 1 6 4 5 6 5 5 6 13 20
16 18 14 7 2 8 9 3 3 4 1 4 3 5 8 7 6 7 9 8 8 8 7 3 4 4 3 7 7 7 8 3 5 5 3 3 5 6 5 6 6 8 7 3 12
19 19 5 7 6 8 4 3 4 5 4 1 2 5 7 8 5 6 8 10 4 5 6 9 7 7 1 3 4 11 7 5 5 4 2 3 6 5 5 5 4 6 8 6 4
18 5 4 3 5 4 3 2 7 5 3 5 5 7 7 6 4 8 10 10 9 9 9 7 6 2 2 1 3 6 8 2 1 1 4 4 4 5 4 8 7 10 12 12 5
7 6 4 2 4 3 3 4 5 1 2 4 8 6 8 11 9 10 10 5 7 6 4 5 4 2 3 2 5 3 4 4 1 2 5 4 5 2 7 8 9 11 12 11 9
4 5 3 3 2 4 5 5 6 6 3 4 6 3 5 6 11 8 4 4 4 7 4 7 4 4 4 7 7 5 4 1 1 2 3 5 1 2 6 6 6 9 10 9 9
3 3 3 1 7 4 6 6 2 6 2 4 3 5 7 8 9 9 9 1 4 8 8 3 2 5 1 2 2 2 4 9 4 5 2 3 4 4 3 4 6 10 9 10 9
3 4 3 2 7 9 6 4 1 8 4 2 5 7 4 7 6 10 7 3 4 8 10 8 5 3 5 5 3 5 5 3 2 1 8 5 2 5 4 1 7 8 7 7 8
3 2 2 2 3 8 13 10 7 4 2 6 8 5 6 6 5 5 7 3 3 6 2 4 5 6 5 3 4 4 7 3 3 4 6 11 13 8 6 7 5 6 5 7 8
2 4 3 3 4 8 10 9 15 10 7 3 9 12 10 7 8 5 7 5 5 6 4 5 6 4 3 1 4 4 5 11 9 13 8 11 10 10 8 6 6 5 3 6 8
2 3 4 5 7 12 12 15 16 11 8 5 7 13 12 11 9 9 9 8 6 8 7 5 3 5 5 3 5 9 10 11 14 13 14 16 16 6 6 5 7 7 6 8 10
3 3 2 6 7 9 13 15 7 18 12 13 14 7 9 11 7 3 2 2 2 7 10 7 7 6 3 2 3 8 16 17 12 9 11 10 3 3 1 6 7 7 8 10 12
Wind_Direction
357 354 349 345 343 339 336 333 332 333 328 324 323 319 326 332 314 218 134 70 101 147 186 154 185 169 184 104 39 264 212 166 153 167 139 152 162 156 139 155 189 157 247 128 137
354 350 347 343 338 336 334 330 328 328 326 324 321 317 322 333 219 244 88 115 103 174 176 171 162 174 134 110 63 292 235 117 114 90 154 172 177 156 175 164 182 161 136 135 149
347 342 340 340 335 335 332 327 325 323 324 321 318 314 312 303 206 140 69 239 208 196 211 193 157 161 130 96 28 23 41 118 106 107 150 162 171 167 182 181 185 175 155 156 162
348 340 335 332 333 331 328 323 322 320 321 318 314 312 313 229 196 88 329 351 154 184 169 151 170 161 123 95 87 117 72 80 112 129 147 165 148 185 194 59 164 155 155 161 166
353 338 331 329 328 327 323 320 318 317 316 315 310 311 269 203 36 358 345 114 152 179 174 176 173 154 119 110 102 97 94 108 125 140 148 138 182 183 191 119 137 143 161 169 171
358 349 337 331 326 322 321 318 314 314 311 310 308 309 249 211 341 344 130 165 191 193 161 187 174 106 94 88 -0 126 120 119 137 132 143 210 165 212 142 145 148 160 173 175 177
354 350 343 332 325 323 321 317 312 310 307 304 311 290 210 58 360 25 132 218 212 208 149 134 132 165 124 102 122 127 123 131 148 153 143 215 197 218 145 166 168 181 183 180 181
351 347 343 334 326 324 319 316 311 307 299 295 325 266 89 17 355 38 106 87 87 94 109 114 109 89 106 125 138 139 160 164 161 177 146 231 166 141 164 177 185 190 187 187 186
349 345 340 338 332 325 321 314 305 299 282 272 265 282 146 193 103 19 83 107 101 96 98 113 83 104 146 142 143 198 171 197 164 199 169 230 342 154 178 191 191 196 195 196 191
347 344 340 339 336 326 321 303 300 297 252 218 199 223 197 126 35 54 84 113 120 125 135 132 129 150 168 191 182 179 175 193 181 184 215 215 253 171 191 200 204 202 203 203 202
347 343 339 337 336 326 329 334 344 169 20 354 14 18 327 28 226 131 20 156 169 181 229 111 190 187 176 201 269 176 190 187 188 138 212 233 253 212 199 209 211 211 208 207 207
347 344 338 335 331 320 331 54 50 335 306 256 254 259 240 318 175 140 261 203 209 207 153 203 220 170 133 156 153 170 184 165 138 155 215 251 260 252 205 218 218 218 218 213 208
347 344 337 331 324 322 51 45 323 190 265 269 242 211 154 204 214 137 252 157 227 194 205 270 118 133 157 162 172 193 210 173 192 166 223 275 261 240 227 217 224 227 228 218 210
346 343 337 326 301 349 70 347 324 221 272 159 199 159 183 173 182 341 9 212 131 208 161 167 154 174 189 197 261 194 199 192 159 189 229 212 295 200 177 215 228 230 226 225 210
343 339 335 327 323 299 352 329 305 232 329 98 157 27 151 211 114 137 82 216 176 149 222 126 172 186 214 230 235 39 171 176 177 220 268 180 255 119 168 199 207 220 230 222 217
337 333 332 253 278 338 324 311 225 228 250 166 174 180 174 178 148 131 166 78 81 113 41 90 127 190 238 102 255 140 142 131 166 240 255 70 259 137 97 350 321 323 278 230 213
331 321 313 301 332 330 317 243 186 180 119 164 173 188 199 176 156 192 179 165 184 189 193 164 157 132 205 153 149 206 193 206 218 209 258 133 225 321 10 28 350 346 351 250 210
327 311 283 262 289 319 284 205 202 208 218 85 187 176 202 171 183 175 184 189 187 209 185 202 190 188 106 274 226 203 240 219 261 225 110 175 235 115 51 51 64 46 49 55 183
320 315 271 257 255 232 231 128 202 214 139 178 163 194 181 188 229 191 215 221 197 196 214 207 198 135 60 238 263 167 218 34 154 81 270 232 227 167 139 81 80 61 54 54 63
330 310 279 295 204 205 97 205 262 234 175 199 228 224 203 190 199 204 187 182 189 204 270 171 159 202 125 190 77 275 97 187 174 206 245 219 262 152 144 91 77 50 32 28 37
285 286 68 247 260 201 204 218 231 241 230 229 225 208 239 186 222 202 187 146 207 160 206 172 206 137 203 206 200 157 183 100 164 280 276 290 233 81 127 86 59 24 22 24 25
308 246 48 188 198 190 200 179 274 233 181 240 281 248 219 200 205 215 208 281 168 177 191 146 170 192 168 99 321 280 244 218 210 194 237 301 264 165 105 78 6 358 12 23 31
294 301 100 286 212 207 178 176 281 236 201 247 234 233 204 206 216 220 194 102 181 197 178 173 192 156 181 180 182 223 188 91 65 122 218 238 231 158 147 222 359 340 26 51 47
294 281 276 254 322 268 204 198 196 218 241 298 299 228 188 202 205 203 188 152 178 215 83 175 182 213 238 66 114 178 197 185 179 200 228 236 278 232 197 334 16 28 47 50 56
218 263 332 243 229 240 217 198 198 181 208 202 261 245 215 205 201 204 191 159 170 165 171 211 204 164 168 138 213 223 198 179 199 226 234 260 265 287 332 349 3 10 62 81 76
209 277 348 310 279 199 229 227 208 208 175 178 237 345 257 233 214 202 189 205 183 174 192 180 192 190 174 195 245 261 242 221 227 244 248 266 273 331 85 8 21 20 80 89 91
226 235 287 284 246 229 223 220 252 224 206 232 188 302 305 271 300 342 147 115 171 177 184 181 164 183 213 188 273 271 242 233 224 227 241 253 308 94 327 52 35 58 83 98 104